Theta_e
341 354 360 359 360 362 363 364 364 364 362 361 362 360 360 359 358 356 353 352 352 349 347 344 342 339 337 335 334 335 336 335 335 337 343 349 351 354 355 356 353 352 354
344 354 359 358 359 361 363 363 363 363 362 361 361 361 360 359 357 356 353 350 350 346 342 340 339 337 335 334 334 334 333 332 330 328 328 338 347 351 352 352 352 353 354
346 352 355 357 358 360 361 362 362 362 361 361 361 361 360 359 356 353 352 349 346 343 341 338 336 336 336 336 335 335 334 334 334 335 332 324 338 348 350 352 353 352 353
345 348 348 357 357 358 360 361 361 361 361 361 361 361 359 358 355 353 350 346 343 342 340 337 337 337 337 337 336 336 336 338 339 340 334 331 324 348 348 350 351 351 351
343 344 349 356 356 357 360 360 360 360 361 361 361 360 358 357 356 353 350 347 343 341 339 338 338 339 338 339 339 339 339 341 343 342 335 332 332 346 348 348 349 350 352
340 345 354 356 355 356 357 359 359 360 360 361 361 359 357 356 355 352 350 348 346 342 341 341 341 340 340 342 342 342 343 344 346 340 337 338 332 348 346 347 347 347 348
337 347 352 356 356 355 356 357 358 359 358 360 360 359 358 356 354 352 350 348 347 347 344 343 345 345 346 346 345 346 345 346 343 340 339 335 333 346 346 345 346 346 347
339 348 350 357 356 355 355 354 355 357 357 358 358 358 357 355 353 352 350 348 348 348 347 347 346 347 347 347 348 348 349 347 344 339 336 334 338 345 343 344 345 345 350
346 346 346 351 354 356 354 353 352 353 354 355 355 355 354 353 352 351 349 348 348 348 348 348 347 348 348 348 348 349 347 345 339 337 335 337 345 345 340 342 343 347 349
348 347 345 346 349 350 350 354 353 352 352 352 352 353 352 352 351 350 348 347 348 348 348 348 348 348 348 348 348 348 346 345 337 336 333 338 348 346 343 343 344 347 350
347 346 345 344 344 345 346 351 353 353 353 352 351 352 349 344 343 344 346 346 348 348 349 349 349 349 349 349 349 348 346 337 336 334 333 347 348 347 344 344 344 346 349
344 346 345 344 342 339 343 344 345 345 345 346 345 344 343 338 335 342 343 348 347 348 348 349 350 350 348 342 342 346 342 338 335 333 335 350 350 347 345 344 344 345 346
344 348 348 345 343 339 337 340 344 343 343 343 341 340 340 339 335 339 335 339 337 345 340 344 344 344 341 340 338 338 341 339 335 333 340 350 350 347 345 344 343 344 346
333 340 346 346 342 338 337 341 342 340 341 340 341 338 338 337 334 333 333 331 332 336 336 335 338 340 338 338 338 336 338 337 336 332 342 349 347 346 342 342 342 343 345
333 334 337 345 345 341 340 342 342 341 340 339 339 339 338 338 334 333 331 331 332 333 336 333 333 336 337 337 338 338 338 338 337 334 339 347 345 345 344 342 341 342 343
332 337 336 336 339 349 345 343 344 344 344 342 341 341 339 337 336 333 331 332 332 332 335 334 331 333 335 336 336 338 338 338 335 333 335 342 345 345 347 345 344 343 342
330 334 332 332 336 351 347 347 350 346 344 345 343 343 341 338 337 335 334 333 333 334 332 334 331 332 334 336 336 337 338 339 337 335 337 339 341 345 345 347 345 345 344
331 329 335 337 348 351 350 349 349 351 350 347 345 345 345 341 338 338 336 334 335 334 333 333 332 331 333 335 336 334 337 338 336 335 336 336 335 337 342 346 344 344 344
328 328 329 338 350 352 353 351 350 349 347 345 343 342 348 344 342 340 339 337 333 335 333 333 333 332 331 330 331 331 335 334 334 337 335 333 334 334 334 340 343 343 343
329 329 333 334 337 349 353 350 348 345 344 340 340 341 345 347 345 340 340 338 339 335 334 332 329 331 329 331 332 331 333 332 332 335 334 335 332 336 336 334 336 337 342
328 330 330 331 332 340 338 341 337 336 334 335 338 339 342 350 347 344 342 340 339 335 333 332 331 328 328 329 327 327 329 332 333 332 331 332 332 333 333 334 333 334 335
324 332 331 332 334 334 335 333 331 329 330 331 333 339 343 347 347 344 341 340 339 337 334 333 332 328 327 327 323 323 319 325 327 330 329 330 330 331 332 333 333 333 331
327 329 331 331 333 334 332 333 332 331 330 332 335 338 344 347 347 346 342 340 339 337 335 333 332 327 324 326 329 324 320 317 316 323 325 327 328 329 328 329 332 334 333
326 328 329 330 331 333 333 330 330 330 327 327 331 342 343 345 345 344 343 340 340 341 337 336 334 330 329 325 328 329 328 325 314 313 322 325 327 328 326 326 329 331 331
323 326 329 332 331 330 333 332 331 329 330 331 336 341 341 341 343 345 343 340 341 341 339 336 334 330 330 327 327 328 326 323 320 316 313 319 322 324 325 325 324 324 328
317 317 321 328 331 331 331 335 333 332 332 335 337 339 337 336 338 341 342 341 342 341 338 334 333 332 332 330 330 325 321 318 317 317 317 318 315 319 322 323 322 325 328
Wind_Speed
9 18 23 21 19 18 17 17 15 14 14 12 12 12 13 13 13 13 13 13 12 10 10 9 8 7 6 6 6 6 6 6 6 5 4 5 5 7 5 5 3 8 11
18 18 23 23 21 19 18 17 16 14 14 12 12 13 13 12 13 12 12 12 10 9 8 7 7 7 6 6 5 5 4 4 3 0 1 1 2 5 6 5 4 10 10
18 16 18 23 21 20 19 18 16 15 14 13 12 12 12 12 12 11 11 11 10 9 8 7 6 6 6 5 5 4 2 1 2 4 3 1 2 3 5 7 7 8 9
17 16 16 23 21 20 19 18 17 16 15 13 13 13 13 12 12 12 11 10 10 9 8 8 7 6 5 5 3 2 1 3 5 7 3 4 6 6 5 8 7 5 8
14 14 16 23 22 21 19 19 18 17 16 15 15 14 14 13 12 11 11 11 10 9 9 9 7 7 6 4 3 1 2 5 7 8 5 4 7 9 9 7 7 5 7
13 12 20 23 22 21 20 19 19 18 18 17 15 15 15 14 12 11 11 11 11 11 10 10 9 7 6 5 3 2 3 5 8 5 5 3 6 12 11 10 8 6 2
15 12 17 22 22 21 21 20 19 18 17 16 16 16 15 14 13 12 12 11 11 11 12 11 10 8 7 6 5 4 5 8 5 6 4 2 7 13 12 10 8 5 3
18 15 15 19 20 20 20 20 18 18 17 16 16 15 15 15 15 14 14 13 13 12 12 12 11 10 9 7 6 6 6 7 7 6 3 3 8 12 12 11 8 5 5
15 15 14 13 15 19 19 19 18 17 16 16 15 15 15 15 15 15 14 14 13 13 12 12 11 11 10 9 8 7 8 9 6 5 6 2 12 12 12 11 8 4 5
15 14 13 13 11 11 11 16 16 15 15 15 15 15 15 15 15 15 14 14 14 14 13 13 12 12 11 9 9 9 10 12 6 6 3 3 12 12 11 10 9 5 5
12 14 13 12 10 9 8 11 14 16 14 14 14 15 12 7 8 11 12 15 15 15 14 14 13 12 11 10 10 11 12 3 5 4 3 13 14 14 12 11 9 7 5
15 15 16 15 12 10 9 8 7 8 7 7 9 9 8 6 6 10 12 16 16 16 15 14 13 12 11 4 4 12 5 5 5 5 3 16 15 15 13 11 9 8 6
18 13 17 17 16 15 10 7 6 6 6 7 9 9 8 7 6 7 5 7 6 14 6 10 8 6 6 4 5 5 7 6 4 4 7 19 17 14 13 12 11 9 7
3 11 8 7 12 13 8 9 8 7 7 7 9 11 8 6 7 7 6 7 7 6 7 6 5 6 6 7 9 9 9 6 4 3 7 13 12 13 13 12 12 11 9
12 11 11 15 12 8 11 8 9 9 9 9 9 11 10 9 9 8 7 6 8 8 8 7 7 8 8 10 11 11 8 9 8 4 4 17 15 13 13 13 12 12 12
16 5 13 6 9 14 12 11 10 9 10 9 9 11 15 11 9 9 9 8 8 9 9 9 9 9 9 9 11 11 9 9 7 7 5 8 15 13 13 14 13 12 13
15 23 21 10 8 11 13 9 8 9 8 10 10 12 14 13 11 12 8 10 8 9 10 9 7 6 7 8 10 9 7 6 5 5 5 6 8 13 13 14 14 14 13
17 21 14 14 9 10 10 8 8 7 6 6 6 8 12 14 14 11 9 8 9 7 9 7 8 7 8 8 9 6 5 4 5 4 4 4 4 5 10 13 12 12 12
11 11 12 16 20 17 11 7 7 7 6 5 5 5 11 14 14 12 9 8 8 6 7 7 5 8 7 5 5 4 3 3 4 2 4 6 7 5 5 9 12 11 11
10 11 10 9 13 16 11 7 4 4 4 4 5 5 8 11 15 13 8 7 7 7 5 3 4 4 4 5 4 3 4 4 4 4 5 3 4 6 6 6 5 6 11
8 10 12 11 10 8 4 5 3 5 3 3 5 9 9 11 13 12 8 7 6 6 6 6 4 5 1 3 4 2 1 5 4 4 3 3 3 3 4 5 4 4 4
9 11 11 11 10 7 5 3 4 4 4 4 5 8 8 9 12 11 9 7 6 5 6 6 5 3 2 3 4 2 1 4 3 4 3 3 4 3 3 3 6 5 5
10 12 11 10 11 8 9 3 2 1 2 2 2 5 6 10 12 12 10 7 6 5 5 5 6 7 4 2 3 5 1 4 1 2 2 2 3 2 1 3 4 5 5
10 13 14 11 11 10 10 7 9 8 6 5 4 4 5 8 9 9 9 7 6 5 5 5 5 4 4 4 1 2 2 4 3 2 2 1 3 3 3 3 3 4 4
10 9 8 10 11 10 12 12 9 6 5 4 3 7 6 5 7 9 9 7 6 4 4 6 6 6 4 4 3 2 1 1 2 3 3 3 2 2 3 4 4 4 4
9 10 10 14 15 15 13 12 12 11 8 5 4 5 4 4 4 7 7 6 6 5 5 5 6 7 5 4 3 3 3 4 4 3 2 3 3 1 3 3 3 3 1
Wind_Direction
158 156 154 143 139 136 140 138 135 133 130 131 122 118 114 112 111 113 115 114 114 116 119 118 114 111 103 93 82 78 80 81 70 64 56 61 80 82 72 72 103 122 123
145 159 155 145 143 141 144 140 137 136 135 136 134 132 127 124 126 128 129 126 126 127 127 128 126 121 111 101 92 81 66 60 60 347 328 60 129 113 99 86 58 137 135
149 158 155 145 145 146 144 141 140 136 140 141 140 137 134 135 139 140 141 140 141 141 139 138 133 129 121 112 102 92 73 7 319 297 283 254 253 125 97 89 101 128 143
156 155 155 146 147 148 145 142 141 143 145 145 147 148 146 148 153 158 156 154 153 156 155 151 152 142 134 124 119 97 349 319 317 304 298 244 210 157 122 97 98 143 155
153 158 156 149 152 151 149 146 145 149 151 153 156 157 160 162 166 171 166 164 166 171 170 167 162 162 156 147 148 136 302 311 315 314 297 296 153 159 136 104 113 154 174
152 165 155 153 155 152 152 150 153 158 160 160 163 165 169 173 175 179 178 176 177 180 183 179 174 174 175 181 181 204 271 296 306 296 282 200 153 152 141 133 121 111 166
159 158 155 157 158 156 156 156 162 163 164 164 168 174 176 177 180 183 185 188 189 189 189 191 178 177 194 195 204 220 259 283 287 277 300 203 159 153 150 145 137 123 178
153 150 155 158 159 159 159 162 167 165 168 170 175 179 179 181 185 186 189 193 194 198 198 198 185 187 194 203 211 230 248 269 290 296 312 219 184 154 152 149 148 152 197
142 145 152 155 162 161 166 166 171 171 172 174 178 181 183 187 191 192 194 199 199 200 204 206 195 195 200 205 216 223 238 246 249 272 291 158 170 157 159 152 151 157 181
140 142 149 153 159 161 164 171 170 174 177 179 183 188 188 193 195 198 197 204 204 204 203 210 204 203 207 210 219 232 241 248 250 252 279 190 169 166 160 156 158 156 160
142 148 149 154 158 160 154 174 171 180 184 187 191 195 192 194 193 200 199 207 209 210 209 213 210 208 213 217 227 237 247 234 243 244 227 183 174 170 166 169 169 165 172
159 166 158 155 161 162 171 168 168 179 178 191 194 191 190 187 189 196 204 209 213 212 212 216 215 212 218 207 235 245 239 223 239 247 203 177 180 175 174 176 180 177 181
175 166 162 160 163 165 180 164 181 184 188 194 195 191 192 190 199 203 200 208 206 213 208 213 215 211 210 204 241 225 230 222 231 240 218 181 184 178 181 180 186 188 190
157 126 115 140 158 169 171 174 182 181 190 194 200 192 186 194 194 202 200 195 188 197 198 198 200 202 207 211 225 238 221 218 225 232 181 175 181 184 184 185 189 194 197
55 3 128 145 157 200 178 177 179 190 192 196 193 199 195 196 200 197 203 187 188 188 193 199 201 202 206 222 231 233 230 223 229 187 155 177 189 187 185 190 196 199 203
128 141 285 211 174 182 186 186 187 189 195 190 195 199 201 200 196 197 204 201 186 191 189 198 204 198 208 212 230 235 229 226 214 165 172 188 188 190 189 196 196 207 205
173 188 199 214 197 156 200 193 187 189 187 193 198 198 197 198 197 198 198 206 195 189 190 196 207 200 201 219 227 234 231 225 209 197 167 180 194 190 199 204 203 208 208
179 176 191 188 187 189 202 207 203 190 187 195 194 196 197 199 197 196 201 201 198 180 192 181 200 208 210 210 221 221 218 206 196 242 165 181 181 196 211 213 214 216 204
180 183 172 174 184 189 192 209 209 192 196 209 209 198 199 195 194 198 197 193 189 196 188 182 187 205 210 201 197 191 186 176 198 217 237 191 204 204 204 220 214 216 207
195 176 171 166 165 182 176 180 200 206 213 200 209 218 186 195 193 191 188 174 175 198 195 174 167 187 169 174 174 183 190 207 213 227 247 299 194 196 179 196 214 218 206
212 184 172 162 172 149 150 166 182 209 203 213 214 222 203 191 191 179 179 180 175 177 190 181 166 178 132 148 95 344 259 238 231 237 241 247 226 177 192 199 211 191 183
215 190 168 168 171 172 155 167 152 179 205 190 212 224 198 172 173 177 172 172 179 162 179 176 154 123 128 160 144 123 256 311 282 245 215 215 213 204 230 208 204 156 183
188 178 179 181 179 169 184 138 149 27 335 273 258 233 196 168 166 166 167 174 174 171 173 175 155 150 154 197 181 150 179 227 19 332 244 219 199 219 182 237 175 161 186
207 183 184 185 181 185 181 177 183 201 200 226 196 208 166 157 153 148 156 166 169 190 164 164 155 145 125 172 129 202 172 153 156 322 318 244 207 209 203 222 184 177 189
175 186 188 184 192 196 200 197 191 190 191 201 201 161 143 139 144 150 164 164 159 166 155 153 151 164 161 152 146 166 224 201 124 143 232 286 319 268 197 196 189 211 222
203 188 187 190 200 199 196 190 184 178 183 187 164 141 130 125 130 141 146 144 153 158 160 174 168 165 170 156 165 159 164 167 197 153 179 239 227 306 210 190 177 209 181